Location: Champignolles
(47.0543°N, 4.5663°E)
Time: 01:57:41
(UTC+00:00)

Envisat - Pass Details

Date: 10 March 2021
Orbit: 764 x 766 km, 98.1° (Epoch: 11 April)

Event Time Altitude Azimuth Distance (km) Brightness Sun altitude
Rises 03:58:48 0° 30° (NNE) 3,242 7.0 -22.0°
Reaches altitude 10° 04:02:14 10° 55° (NE) 2,309 6.5 -21.4°
Maximum altitude 04:04:58 14° 88° (E) 2,010 6.1 -21.0°
Drops below altitude 10° 04:07:41 10° 120° (ESE) 2,299 6.0 -20.5°
Sets 04:11:05 0° 145° (SE) 3,218 6.5 -20.0°
